Weather History for Thermal, CA

Change the Weather History Date:

Friday, January 11, 2013

  Actual Average Record
Temperature  
Mean Temperature 46 °F 54 °F  
Max Temperature 59 °F 71 °F 87 °F (1983)
Min Temperature 32 °F 38 °F 22 °F (1962)
Degree Days  
Heating Degree Days 19 11  
Month to date heating degree days 153 123  
Since 1 July heating degree days 591 661  
Cooling Degree Days 0 0  
Month to date cooling degree days 0 0  
Year to date cooling degree days 0 0  
Moisture  
Dew Point 18 °F    
Average Humidity 35    
Maximum Humidity 56    
Minimum Humidity 14    
Precipitation  
Precipitation 0.00 in 0.02 in 0.31 in (1981)
Month to date precipitation T 0.25  
Year to date precipitation T 0.25  
Since 1 July precipitation 2.18 1.63  
Snow  
Snow 0.00 in - - ()
Month to date snowfall 0.0  
Year to date snowfall 0.0  
Since 1 July snowfall 0.0  
Snow Depth 0.00 in    
Sea Level Pressure  
Sea Level Pressure 30.06 in    
Wind  
Wind Speed 5 mph (SE)    
Max Wind Speed 14 mph    
Max Gust Speed 17 mph    
Visibility 10 miles    
Events      
T = Trace of Precipitation, MM = Missing Value Source: NWS Daily Summary

Daily Weather History Graph

Daily Weather History Graph

Search for Another Location

Airport:

Trip Planner

Search our weather history database for the weather conditions in past years. The results will help you decide how hot, cold, wet, or windy it might be!

Date:

Astronomy

Jan. 11, 2013 Rise Set
Actual Time 6:49 AM PST 4:56 PM PST
Civil Twilight 6:22 AM PST 5:23 PM PST
Nautical Twilight 5:51 AM PST 5:53 PM PST
Astronomical Twilight 5:21 AM PST 6:24 PM PST
Moon 6:28 AM PST (1/11) 5:16 PM PST (1/11)
Length of Visible Light 11h 00m
Length of Day
10h 06m
New Moon, 0% of the Moon is Illuminated
Jan 11
New Moon
Jan 18
First Quarter
Jan 26
Full
Feb 3
Last Quarter
Feb 9
New

Hourly Weather History & Observations

Time (PST) Temp. Windchill Dew Point Humidity Pressure Visibility Wind Dir Wind Speed Gust Speed Precip Events Conditions
12:52 AM 46.0 °F 41.9 °F 17.1 °F 31% 30.04 in 10.0 mi NW 8.1 mph - N/A   Clear
1:52 AM 44.1 °F 38.6 °F 19.0 °F 37% 30.05 in 10.0 mi NNW 10.4 mph - N/A   Clear
2:52 AM 43.0 °F 39.5 °F 18.0 °F 37% 30.05 in 10.0 mi WNW 5.8 mph - N/A   Clear
4:52 AM 45.0 °F 39.7 °F 18.0 °F 34% 30.07 in 10.0 mi NNW 10.4 mph - N/A   Clear
5:52 AM 45.0 °F 41.2 °F 17.1 °F 33% 30.08 in 10.0 mi NW 6.9 mph - N/A   Clear
6:52 AM 33.1 °F - 17.1 °F 52% 30.09 in 10.0 mi Calm Calm - N/A   Clear
7:52 AM 39.0 °F 36.8 °F 19.0 °F 45% 30.12 in 10.0 mi East 3.5 mph - N/A   Clear
8:52 AM 48.9 °F - 18.0 °F 29% 30.14 in 10.0 mi SSW 3.5 mph - N/A   Clear
9:52 AM 53.1 °F - 17.1 °F 24% 30.14 in 10.0 mi Calm Calm - N/A   Clear
10:52 AM 55.0 °F - 12.9 °F 19% 30.11 in 10.0 mi Calm Calm - N/A   Clear
11:52 AM 57.9 °F - 12.0 °F 16% 30.08 in 10.0 mi Variable 4.6 mph - N/A   Clear
12:52 PM 57.9 °F - 12.0 °F 16% 30.04 in 10.0 mi SE 3.5 mph - N/A   Clear
1:52 PM 59.0 °F - 10.0 °F 14% 30.03 in 10.0 mi SSE 9.2 mph - N/A   Clear
2:52 PM 59.0 °F - 10.9 °F 15% 30.02 in 10.0 mi SE 10.4 mph - N/A   Clear
3:52 PM 55.9 °F - 17.1 °F 22% 30.02 in 10.0 mi SE 8.1 mph - N/A   Clear
4:52 PM 48.9 °F - 19.0 °F 31% 30.01 in 10.0 mi SE 4.6 mph - N/A   Clear
5:52 PM 44.1 °F 41.5 °F 21.0 °F 40% 30.01 in 10.0 mi ESE 4.6 mph - N/A   Clear
6:52 PM 37.9 °F - 21.0 °F 51% 30.02 in 10.0 mi Calm Calm - N/A   Clear
7:52 PM 36.0 °F 33.3 °F 21.0 °F 55% 30.03 in 10.0 mi WSW 3.5 mph - N/A   Clear
8:52 PM 37.9 °F - 21.0 °F 51% 30.04 in 10.0 mi Calm Calm - N/A   Overcast
9:52 PM 39.9 °F - 21.9 °F 49% 30.04 in 10.0 mi Calm Calm - N/A   Overcast
10:52 PM 39.9 °F - 21.0 °F 47% 30.04 in 10.0 mi Calm Calm - N/A   Overcast
11:52 PM 41.0 °F 39.0 °F 24.1 °F 51% 30.04 in 10.0 mi North 3.5 mph - N/A   Overcast